Retour au catalogue

ATLAS 5 CENTAUR DEB

ActifHEO
NORAD 46668·DEBRIS·🇺🇸 United States

Lancé Oct 17, 2018 depuis Cape Canaveral Space Force Station

Loading…

Prochains Passages (prochaines 24 heures)

TLE

FraisSource: Space-Track

Époque: Sep 14, 2026, 10:41 UTC

1 46668U 18079CW  26257.44568377 -.00000175  00000-0  00000-0 0  9995
2 46668  13.3655  25.6104 4657913 336.8796   7.5428  1.83703400 39813

Suivez ATLAS 5 CENTAUR DEB en temps réel avec AllMySat

Download on the App Store